Regional Weather Roundup
Issued by NWS Green Bay, WI

Home | Current Version | Previous Version | Text Only | Print | Product List | Glossary On
Versions: 1 2 3 4 5 6 7 8 9 10 11 12 13 14 15 16 17 18 19 20 21 22 23 24 25 26 27 28 29 30 31 32 33 34 35 36 37 38 39 40 41 42 43 44 45 46 47 48 49 50
000
ASUS43 KGRB 230510
RWRGRB

NORTH-CENTRAL AND NORTHEAST WISCONSIN REGIONAL WEATHER ROUNDUP
NATIONAL WEATHER SERVICE GREEN BAY WI
1100 PM CST SAT NOV 22 2014

WIZ005-009-010>012-018-019-230600-
NORTH CENTRAL WISCONSIN

CITY           SKY/WX    TMP DP  RH WIND       PRES   REMARKS
IRONWOOD       CLOUDY    36  34  93 SE12      29.58F
MANITOWISH WTR CLOUDY    33  33 100 S9        29.65S FOG
ARBOR VITAE    FOG       37  36  96 S6        29.66S VSB 1
EAGLE RIVER    CLOUDY    34  34 100 S3        29.67S FOG
LAND O LAKES   CLOUDY    34  34 100 S9        29.67R FOG
RHINELANDER    FOG       34  34 100 S3        29.67F VSB 3/4
PHILLIPS       FOG       34  34 100 SE9       29.63F VSB 3/4
ANTIGO         FOG       33  33 100 S7        29.70S VSB 1/4
TOMAHAWK       FOG       34  33  96 CALM      29.67F VSB 1
MERRILL        FOG       35  35 100 SE3       29.68F VSB 1/2
$$

WIZ013-073-230600-
NORTHEAST WISCONSIN

CITY           SKY/WX    TMP DP  RH WIND       PRES   REMARKS
IRON MOUNTAIN  CLOUDY    35  33  92 S6        29.70F FOG
MARINETTE      CLOUDY    37  36  93 CALM      29.74F VSB 3/4
OCONTO         CLOUDY    37  37 100 CALM      29.75S VSB 1/4
$$

WIZ017-030-035>037-045-230600-
CENTRAL WISCONSIN

CITY           SKY/WX    TMP DP  RH WIND       PRES   REMARKS
MEDFORD        FOG       35  35  99 SE3       29.65F VSB 1/4
WAUSAU         FOG       35  35 100 SE5       29.67F VSB 1/4
MOSINEE        FOG       36  36 100 SE6       29.69F VSB 1/4
MARSHFIELD     FOG       38  37  97 SE6       29.66F VSB 1/4
WISC RAPIDS    FOG       40  38  93 SE6       29.69F VSB 1/2
STEVENS POINT  FOG       37  37 100 SE3       29.69F VSB 1
WAUPACA        FOG       40  39  95 CALM      29.72F VSB 3/4
SHAWANO        FOG       40  38  95 CALM      29.73F VSB 1/2
CLINTONVILLE   FOG       37  36  93 SE5       29.72F VSB 1/4
$$

WIZ038-039-048-051-230600-
FOX VALLEY

CITY           SKY/WX    TMP DP  RH WIND       PRES   REMARKS
NWS GREEN BAY  CLOUDY    39  38  96 S7        29.74F FOG
APPLETON       FOG       39  39 100 S7        29.74S VSB 1/4
OSHKOSH        CLOUDY    45  43  93 S10       29.74F FOG
FOND DU LAC    CLOUDY    48  45  89 S10       29.75F
$$

WIZ022-050-052-230600-
EAST CENTRAL WISCONSIN

CITY           SKY/WX    TMP DP  RH WIND       PRES   REMARKS
STURGEON BAY   CLOUDY    39  37  93 S8        29.76F VSB 1/4
MANITOWOC      CLOUDY    43  42  97 S7        29.77F FOG
SHEBOYGAN      FOG       42  41  96 S6        29.77F VSB 1/2
$$

LMZ563-521-522-541>543-230600-
LAKESHORE

STATION/POSITION TIME  TEMP    WIND        PRES    VSBY  WAVE
                       AIR SEA DIR/SP/G                  HT/PER
                 (UTC) (F)     (DEG/KT/KT) (MB)    (MI)  (FT/S)
SHEBOYGAN LKSHOR 0500   44 36  180/ 11/ 11 1009.0F
KEWAUNEE LKSHORE 0500   38     180/  5/  6 1007.3R
ALGOMA MARINA    0400          220/  3/  4   N/A
NORTHPORT PIER   0500   37     130/  2/ 13 1007.8S
N MID LAKE BUOY  0500   40 42  230/ 12/ 16 1008.8F         4/ 7
CHAMBERS ISLAND  0500   38     160/  2/  5 1007.8F
MENOMINEE LKSHOR 0500   36     180/  4/  6 1008.1F
$$


USA.gov is the U.S. government's official web portal to all federal, state and local government web resources and services.